This demonstration page uses our WeatherBlox Daily Observations layout. Learn more.

41.55636, -103.73856

Hourly Observations for August 8, 2015

Temp ( °F °C ) Dew Point ( °F °C ) Humidity (%) Winds ( mph kmh ) Pressure ( in mb ) Visibility ( mi km ) Precip ( " mm )
12:53 am 00:53 Mostly Cloudy 66 18.9 62 16.7 87 87 ENE 3 6 29.81 1010 10 16.0934 0 0
1:53 am 01:53 Cloudy 66 18.9 62 16.7 87 87 N 3 6 29.81 1009 10 16.0934 0 0
2:53 am 02:53 Partly Cloudy 65 18.3 61 16.1 87 87 Calm 29.81 1010 10 16.0934 0 0
3:53 am 03:53 Partly Cloudy 64 17.8 61 16.1 90 90 SE 7 11 29.81 1009 10 16.0934 0 0
4:53 am 04:53 Clear 63 17.2 61 16.1 93 93 Calm 29.81 1010 10 16.0934 0 0
5:53 am 05:53 Partly Cloudy 62 16.7 60 15.6 93 93 SE 5 7 29.83 1010 10 16.0934 0 0
6:53 am 06:53 Sunny with Mist and Fog 63 17.2 61 16.1 93 93 NE 3 6 29.84 1011 5 8.0467 0 0
7:53 am 07:53 Sunny 65 18.3 62 16.7 90 90 Calm 29.85 1011 7 11.26538 0 0
8:53 am 08:53 Sunny 67 19.4 62 16.7 84 84 Calm 29.86 1011 10 16.0934 0 0
9:53 am 09:53 Sunny 71 21.7 62 16.7 73 73 NNW 3 6 29.85 1011 10 16.0934 0 0
10:53 am 10:53 Sunny 75 23.9 62 16.7 64 64 WNW 5 7 29.85 1011 10 16.0934 0 0
11:53 am 11:53 Sunny 81 27.2 62 16.7 53 53 Calm 29.83 1010 10 16.0934 0 0
12:53 pm 12:53 Sunny 84 28.9 53 11.7 34 34 NW 7 11 29.8 1009 10 16.0934 0 0
1:53 pm 13:53 Sunny 86 30 53 11.7 32 32 ENE 6 9 29.79 1009 10 16.0934 0 0
2:53 pm 14:53 Sunny 85 29.4 56 13.3 37 37 E 7 11 29.79 1009 10 16.0934 0 0
3:53 pm 15:53 Sunny 87 30.6 52 11.1 30 30 Calm 29.77 1008 10 16.0934 0 0
4:53 pm 16:53 Sunny 86 30 54 12.2 33 33 SSE 9 15 29.77 1008 10 16.0934 0 0
5:53 pm 17:53 Sunny 86 30 55 12.8 35 35 SSE 10 17 29.76 1008 10 16.0934 0 0
6:53 pm 18:53 Sunny 84 28.9 57 13.9 40 40 ESE 9 15 29.75 1008 10 16.0934 0 0
7:53 pm 19:53 Sunny 78 25.6 59 15 52 52 SSE 9 15 29.77 1008 10 16.0934 0 0
8:53 pm 20:53 Clear 74 23.3 58 14.4 57 57 undefined N/A 29.8 1009 10 16.0934 0 0
9:53 pm 21:53 Clear 72 22.2 59 15 64 64 SSE 6 9 29.82 1010 10 16.0934 0 0
10:53 pm 22:53 Clear 72 22.2 59 15 64 64 S 8 13 29.81 1010 10 16.0934 0 0
11:53 pm 23:53 Clear 72 22.2 56 13.3 57 57 NNW 3 6 29.82 1010 10 16.0934 0 0

Powered by AerisWeather